Location: Casco Millpond
(44.5581°N, 87.6111°W)
Time: 21:32:59
(UTC+00:00)

IGS 5A - Pass Details

Date: 16 January 2026
Orbit: 551 x 554 km, 97.4° (Epoch: 8 January)

Event Time Altitude Azimuth Distance (km) Brightness Sun altitude
Rises 23:04:28 0° 177° (S) 2,715 7.2 -5.1°
Reaches altitude 10° 23:06:38 10° 182° (S) 1,826 6.4 -5.4°
Maximum altitude 23:10:30 53° 260° (W) 682 4.3 -6.0°
Drops below altitude 10° 23:14:24 10° 338° (NNW) 1,840 6.0 -6.7°
Sets 23:16:35 0° 344° (NNW) 2,739 6.8 -7.0°
